When you browse on this site, cookies collect data to enhance your experience and personalize the content and advertising you see.
Visit our Privacy Policy to learn more. By continuing to use the site, you agree to this use of cookies and data.
  • In Czech Republic
  • List of Countries
  • For 7 days
  • Water Temperature
  • Satellite Maps
  • Weather Map
  • Weather Widgets
  • user-avatar
    Login

    Hourly Weather Łęczna

    Today, 16 January, Wednesday

    Time Temperature Precipitation Wind Pressure Humidity
    00:00 -2°C° 0.9 mm 5 mps 734 mmHg 92%
    01:00 -3°C° 0.9 mm 6 mps 734 mmHg 93%
    02:00 -2°C° 0 mm 6 mps 733 mmHg 93%
    03:00 -2°C° 0.3 mm 7 mps 733 mmHg 93%
    04:00 -1°C° 0.3 mm 9 mps 733 mmHg 92%
    05:00 -2°C° 0.3 mm 10 mps 734 mmHg 92%
    06:00 -1°C° 0.1 mm 9 mps 735 mmHg 90%
    07:00 -1°C° 0.1 mm 8 mps 736 mmHg 88%
    08:00 -2°C° 0.1 mm 7 mps 737 mmHg 86%
    09:00 -2°C° 0 mm 6 mps 738 mmHg 87%
    10:00 -1°C° 0 mm 5 mps 739 mmHg 88%
    11:00 -1°C° 0 mm 3 mps 739 mmHg 89%
    12:00 0°C° 0 mm 3 mps 740 mmHg 92%
    13:00 0°C° 0 mm 3 mps 740 mmHg 95%
    14:00 +1°C° 0 mm 2 mps 740 mmHg 98%
    15:00 +1°C° 0.1 mm 2 mps 740 mmHg 98%
    16:00 +1°C° 0.1 mm 2 mps 740 mmHg 98%
    17:00 0°C° 0.1 mm 3 mps 741 mmHg 98%
    18:00 0°C° 0.1 mm 3 mps 741 mmHg 98%
    19:00 0°C° 0.1 mm 4 mps 741 mmHg 98%
    20:00 0°C° 0.1 mm 4 mps 741 mmHg 98%
    21:00 0°C° 0 mm 5 mps 741 mmHg 96%
    22:00 0°C° 0 mm 5 mps 741 mmHg 95%
    23:00 0°C° 0 mm 5 mps 741 mmHg 93%

    Tomorrow, 17 January, Thursday

    Time Temperature Precipitation Wind Pressure Humidity
    00:00 -1°C° 0 mm 5 mps 741 mmHg 92%
    01:00 -1°C° 0 mm 5 mps 740 mmHg 91%
    02:00 -1°C° 0 mm 5 mps 740 mmHg 90%
    03:00 -1°C° 0 mm 5 mps 740 mmHg 90%
    04:00 -1°C° 0 mm 5 mps 739 mmHg 89%
    05:00 -2°C° 0 mm 6 mps 739 mmHg 89%
    06:00 -2°C° 0 mm 6 mps 739 mmHg 88%
    07:00 -2°C° 0 mm 7 mps 738 mmHg 86%
    08:00 -2°C° 0 mm 7 mps 738 mmHg 85%
    09:00 -2°C° 0 mm 7 mps 738 mmHg 82%
    10:00 -1°C° 0 mm 8 mps 738 mmHg 79%
    11:00 -1°C° 0 mm 8 mps 737 mmHg 77%
    12:00 -1°C° 0 mm 8 mps 737 mmHg 78%
    13:00 0°C° 0 mm 8 mps 738 mmHg 78%
    14:00 0°C° 0 mm 8 mps 738 mmHg 79%
    15:00 0°C° 0 mm 7 mps 738 mmHg 80%
    16:00 0°C° 0 mm 7 mps 738 mmHg 81%
    17:00 -1°C° 0 mm 6 mps 738 mmHg 83%
    18:00 -1°C° 0 mm 6 mps 738 mmHg 84%
    19:00 -1°C° 0 mm 6 mps 738 mmHg 85%
    20:00 -1°C° 0 mm 7 mps 738 mmHg 86%
    21:00 -1°C° 0 mm 7 mps 738 mmHg 86%
    22:00 -1°C° 0 mm 7 mps 738 mmHg 86%
    23:00 -1°C° 0 mm 7 mps 738 mmHg 86%

    Day after tomorrow, 18 January, Friday

    Time Temperature Precipitation Wind Pressure Humidity
    00:00 -1°C° 0 mm 7 mps 738 mmHg 86%
    01:00 -1°C° 0 mm 7 mps 738 mmHg 85%
    02:00 0°C° 0 mm 7 mps 738 mmHg 85%
    03:00 -1°C° 0 mm 7 mps 738 mmHg 84%
    04:00 -1°C° 0 mm 6 mps 738 mmHg 83%
    05:00 -2°C° 0 mm 6 mps 738 mmHg 82%
    06:00 -2°C° 0 mm 6 mps 739 mmHg 81%
    07:00 -3°C° 0 mm 6 mps 739 mmHg 79%
    08:00 -3°C° 0 mm 6 mps 739 mmHg 78%
    09:00 -3°C° 0 mm 7 mps 740 mmHg 76%
    10:00 -4°C° 0 mm 8 mps 740 mmHg 74%
    11:00 -4°C° 0 mm 9 mps 740 mmHg 72%
    12:00 -4°C° 0.1 mm 9 mps 741 mmHg 74%
    13:00 -4°C° 0.1 mm 9 mps 742 mmHg 77%
    14:00 -2°C° 0.1 mm 8 mps 743 mmHg 80%
    15:00 -3°C° 0.1 mm 7 mps 744 mmHg 79%
    16:00 -3°C° 0.1 mm 6 mps 745 mmHg 78%
    17:00 -2°C° 0.1 mm 5 mps 746 mmHg 77%
    18:00 -4°C° 0 mm 5 mps 746 mmHg 78%
    19:00 -3°C° 0 mm 4 mps 747 mmHg 80%
    20:00 -3°C° 0 mm 4 mps 748 mmHg 82%
    21:00 -3°C° 0 mm 4 mps 748 mmHg 82%
    22:00 -4°C° 0 mm 3 mps 749 mmHg 81%
    23:00 -4°C° 0 mm 3 mps 749 mmHg 81%

    19 January, Saturday

    Time Temperature Precipitation Wind Pressure Humidity
    00:00 -4°C° 0 mm 3 mps 750 mmHg 82%
    01:00 -5°C° 0 mm 3 mps 750 mmHg 84%
    02:00 -5°C° 0 mm 3 mps 751 mmHg 85%
    03:00 -5°C° 0 mm 3 mps 751 mmHg 86%
    04:00 -5°C° 0 mm 3 mps 751 mmHg 87%
    05:00 -5°C° 0 mm 3 mps 751 mmHg 87%
    06:00 -5°C° 0 mm 3 mps 751 mmHg 88%
    07:00 -5°C° 0 mm 3 mps 751 mmHg 88%
    08:00 -6°C° 0 mm 3 mps 751 mmHg 88%
    09:00 -5°C° 0 mm 3 mps 751 mmHg 86%
    10:00 -4°C° 0 mm 3 mps 751 mmHg 84%
    11:00 -4°C° 0 mm 3 mps 751 mmHg 82%
    12:00 -2°C° 0 mm 3 mps 751 mmHg 80%
    13:00 -2°C° 0 mm 3 mps 751 mmHg 79%
    14:00 -2°C° 0 mm 3 mps 751 mmHg 78%
    15:00 -2°C° 0 mm 3 mps 750 mmHg 80%
    16:00 -2°C° 0 mm 2 mps 750 mmHg 83%
    17:00 -3°C° 0 mm 2 mps 750 mmHg 86%
    18:00 -3°C° 0 mm 2 mps 750 mmHg 85%
    19:00 -3°C° 0 mm 2 mps 750 mmHg 85%
    20:00 -4°C° 0 mm 2 mps 750 mmHg 85%
    21:00 -4°C° 0 mm 2 mps 750 mmHg 85%
    22:00 -4°C° 0 mm 2 mps 750 mmHg 85%
    23:00 -2°C° 0 mm 1 mps 750 mmHg 84%

    20 January, Sunday

    Time Temperature Precipitation Wind Pressure Humidity
    00:00 -2°C° 0 mm 1 mps 750 mmHg 84%
    01:00 -2°C° 0 mm 1 mps 750 mmHg 84%
    02:00 -2°C° 0 mm 1 mps 750 mmHg 83%
    03:00 -2°C° 0 mm 1 mps 749 mmHg 83%
    04:00 -3°C° 0 mm 1 mps 749 mmHg 83%
    05:00 -4°C° 0 mm 0 mps 749 mmHg 83%
    06:00 -4°C° 0 mm 0 mps 749 mmHg 83%
    07:00 -3°C° 0 mm 1 mps 749 mmHg 83%
    08:00 -3°C° 0 mm 1 mps 749 mmHg 82%
    09:00 -2°C° 0 mm 1 mps 749 mmHg 81%
    10:00 -2°C° 0 mm 1 mps 749 mmHg 81%
    11:00 -1°C° 0 mm 1 mps 749 mmHg 80%
    12:00 -3°C° 0 mm 2 mps 749 mmHg 80%
    13:00 -2°C° 0 mm 2 mps 749 mmHg 80%
    14:00 -2°C° 0 mm 3 mps 749 mmHg 80%
    15:00 -2°C° 0 mm 3 mps 749 mmHg 82%
    16:00 -4°C° 0 mm 3 mps 749 mmHg 85%
    17:00 -4°C° 0 mm 3 mps 749 mmHg 87%
    18:00 -4°C° 0 mm 3 mps 749 mmHg 87%
    19:00 -4°C° 0 mm 3 mps 749 mmHg 88%
    20:00 -4°C° 0 mm 3 mps 749 mmHg 88%
    21:00 -5°C° 0 mm 4 mps 750 mmHg 90%
    22:00 -5°C° 0 mm 4 mps 750 mmHg 91%
    23:00 -5°C° 0 mm 4 mps 750 mmHg 93%

    21 January, Monday

    Time Temperature Precipitation Wind Pressure Humidity
    00:00 -5°C° 0 mm 4 mps 751 mmHg 91%
    01:00 -5°C° 0 mm 4 mps 751 mmHg 90%
    02:00 -7°C° 0 mm 4 mps 751 mmHg 88%
    03:00 -7°C° 0 mm 4 mps 752 mmHg 88%
    04:00 -6°C° 0 mm 3 mps 752 mmHg 87%
    05:00 -7°C° 0 mm 3 mps 753 mmHg 87%
    06:00 -7°C° 0 mm 3 mps 753 mmHg 88%
    07:00 -7°C° 0 mm 3 mps 754 mmHg 89%
    08:00 -7°C° 0 mm 3 mps 754 mmHg 90%
    09:00 -6°C° 0 mm 3 mps 754 mmHg 88%
    10:00 -7°C° 0 mm 4 mps 755 mmHg 86%
    11:00 -5°C° 0 mm 4 mps 755 mmHg 83%
    12:00 -5°C° 0 mm 4 mps 756 mmHg 82%
    13:00 -4°C° 0 mm 4 mps 756 mmHg 80%
    14:00 -4°C° 0 mm 4 mps 756 mmHg 78%
    15:00 -4°C° 0 mm 4 mps 756 mmHg 79%
    16:00 -4°C° 0 mm 3 mps 756 mmHg 81%
    17:00 -5°C° 0 mm 3 mps 757 mmHg 82%
    18:00 -5°C° 0 mm 3 mps 757 mmHg 83%
    19:00 -4°C° 0 mm 2 mps 757 mmHg 85%
    20:00 -4°C° 0 mm 2 mps 757 mmHg 87%
    21:00 -4°C° 0 mm 2 mps 757 mmHg 87%
    22:00 -5°C° 0 mm 2 mps 757 mmHg 87%
    23:00 -5°C° 0 mm 2 mps 757 mmHg 88%
    Show more